User: anonymous   Login
Location: Newark
(21.1700°N, 79.6500°E)
Time: 02:09:02
(UTC+00:00)
Language:

N. Korean satellite - Orbit

View from above orbital plane
View from above orbital plane
View from above satellite
View from above satellite

Ground track
Ground track

The orbit data is extracted from the following two-line orbital elements,

1 39026U 12072A   20018.53911310 +.00000667 +00000-0 +26302-4 0  9992
2 39026 097.2174 019.8936 0039172 062.1636 298.3564 15.28286544394192
Epoch (UTC): 18 January 2020 12:56:19
Eccentricity: 0.0039172
inclination: 97.2174°
perigee height: 454 km
apogee height: 508 km
right ascension of ascending node: 19.8936°
argument of perigee: 62.1636°
revolutions per day: 15.28286544
mean anomaly at epoch: 298.3564°
orbit number at epoch: 39419

The dashed part of the orbit path shows where the satellite is in the earth's shadow,  

DLR